DELTA 1 R/B(2) *, 2971

Orbit data source: Space-Track

DELTA 1 R/B(2) *, 2971 is space debris in HEO originally from a launch on Thu, 28 Sep 1967 UTC launched from the Air Force Eastern Test Range (AFETR). Debris objects in space refer to the collection of defunct objects orbiting the Earth. Examples of debris include non-operational satellites, rocket bodies, and fragments generated from explosions, collisions, or faulty payload assembly.

Loading next visibility...
Identifier
2971, 1967-094C
Orbit
HEO
Country
Flag of USUS
Related business
Manufacturer
UTC
Mission
Spacecraft
Bus & Motor
FW4, Unknown motor
Mass
~40 kg wet, ~40 kg dry
Launch date (UTC)
1967-09-28 (58 years ago)
Launch vehicle
Unknown
Launch site
Air Force Eastern Test Range (AFETR)
Object type
Payload
Rocket body
Debris
Shape & HBR
Unknown
Radar Cross Section
Large (>1 m²)

Expand to show TLE details & history
Last TLE update: 3 days ago

TLE from 3 days ago
0 DELTA 1 R/B(2) *
1 02971U 67094C   25310.11720998  .00009508  00000-0  45168-2 0  9991
2 02971  28.3677 302.3561 6555282 274.9126  18.6124  3.20923932552645
Epoch: 2025-11-06T02:48Z
TLE epoch observation values (Epoch: 2025-11-06T02:48:46.942Z)
Latitude
-0.00037°
Longitude
-145.47656°
Altitude
4,085.751 km
Speed
7.46 km/s
True Right ascension
20h 09m 11s
True Declination
0° 00' 01"
Sunlit
Object was in daylight at epoch
Visualization orbit readout
Latitude
Unknown
Longitude
Unknown
Altitude
Unknown
Speed
Unknown
Apparent Right ascension
Unknown
Apparent Declination
Unknown
Sunlit
N/A
Visualization observer readout
Local Sidereal Time
05:28:44
Azimuth
Unknown
Elevation
Unknown
Doppler factor
Unknown
Orbital elements
Apogee altitude
25,769.463 km
Perigee altitude
310.932 km
Semi-major axis
19,418.334 km
Eccentricity
0.65553
Inclination
28.3677°
RAAN
302.3561°
Arg. of periapsis
274.9126°
True anomaly
84.92839°
Mean anomaly
18.6124°
Eccentric anomaly
45.31729°
Mean motion
0.80209 °/min
Orbital period
448.83 mins
BSTAR
0.0045168
Loading maneuver chart data...
Computing Atmospheric mass density...
Loading historical data...
Loading historical data...
Loading historical data...
Loading historical data...
Loading historical data...
Loading historical data...
Loading historical data...
Other satellites on launch #94 in the year 1967 (1967-09-28 UTC)

Documentation

Showing up to 5 results
|